Regional Weather Roundup
Issued by NWS

Home | Current Version | Previous Version | Text Only | Print | Product List | Glossary Off
Versions: 1 2 3 4 5 6 7 8 9 10 11 12 13 14 15 16 17 18 19 20 21 22 23 24 25 26 27 28 29 30 31 32 33 34 35 36 37 38 39 40 41 42 43 44 45 46 47 48 49 50

027
ASUS43 KIND 201709
RWRIN

WEATHER ROUNDUP FOR INDIANA
NATIONAL WEATHER SERVICE INDIANAPOLIS IN
1200 PM EST FRI JAN 20 2017

NOTE: "FAIR" INDICATES FEW OR NO CLOUDS BELOW 12,000 FEET WITH NO
SIGNIFICANT WEATHER AND/OR OBSTRUCTIONS TO VISIBILITY.

* - STATION DOES NOT REPORT WEATHER SUCH AS PRECIPITATION OR FOG.

+ - STATION NOT QUALITY CONTROLLED BY THE NATIONAL WEATHER SERVICE.
    USE DATA WITH CAUTION...ESPECIALLY DEWPOINT AND RELATIVE
    HUMIDITY OBSERVATIONS.

INZ001>003-010>013-019-020-201800-
NORTHWEST INDIANA

CITY           SKY/WX    TMP DP  RH WIND       PRES   REMARKS
GARY /AIRPORT/ CLOUDY    41  41 100 SW3       29.67R FOG
KNOX *+        CLOUDY    41  34  75 S6        29.66R
LA PORTE +     CLOUDY    39  39  99 S7        29.67R FOG
MICHIGAN CITY+ CLOUDY    41  41 100 S5        29.66S FOG
MONTICELLO +   CLOUDY    46  45  95 SW9       29.66F
RENSSELAER +   FOG       43  43 100 SW6       29.67S VSB 3/4
VALPARAISO     FOG       40  40 100 S6        29.67R VSB 1/4

$$

LMZ046-743>745-201800-
SOUTHERN LAKE MICHIGAN

STATION/POSITION TIME  TEMP    WIND        PRES    WAVE
                       AIR SEA DIR/SP/G            HT
                 (UTC) (F)     (DEG/KT/KT) (MB)    (FT)
BURNS HARBOR     1640   36      CALM  /  5 1005.4R
MICHIGAN CITY    1640   35      40/  4/  4   N/A

$$

INZ004-005-014>016-021>024-201800-
NORTH CENTRAL INDIANA

CITY           SKY/WX    TMP DP  RH WIND       PRES   REMARKS
ELKHART        CLOUDY    39  37  93 CALM      29.66R FOG
GOSHEN         CLOUDY    40  36  86 CALM      29.65R FOG
LOGANSPORT +   CLOUDY    45  45 100 SW10      29.67F FOG
PERU/GRISSOM   CLOUDY    48  48 100 SW9       29.65S
ROCHESTER +    FOG       45  45 100 SW7       29.66S VSB 3/4
SOUTH BEND     CLOUDY    39  39 100 CALM      29.65F FOG
WARSAW +       FOG       39  36  87 CALM      29.66R VSB 3/4

$$

INZ006>009-017-018-025>027-201800-
NORTHEAST INDIANA

CITY           SKY/WX    TMP DP  RH WIND       PRES   REMARKS
ANGOLA *+      CLOUDY    37  30  75 SW3       29.64R
AUBURN +       CLOUDY    39  37  93 CALM      29.66R FOG
FORT WAYNE     CLOUDY    46  43  89 SW10      29.66R FOG
HUNTINGTON +   CLOUDY    46  44  95 W9        29.66S
KENDALLVILLE + CLOUDY    39  39 100 SW5       29.65R FOG

$$

INZ028-029-035-036-043>045-051>053-201800-
WEST CENTRAL INDIANA

CITY           SKY/WX    TMP DP  RH WIND       PRES   REMARKS
CRAWFORDSVL +  CLOUDY    46  46 100 SW9       29.69F
GREENCASTLE +  CLOUDY    50  50 100 SW6       29.70F FOG
LAFAYETTE      CLOUDY    49  47  93 SW9       29.67S
TERRE HAUTE    CLOUDY    51  49  92 SW7       29.70F FOG

$$

INZ030>032-037>040-046>048-054>057-064-065-201800-
CENTRAL INDIANA

CITY           SKY/WX    TMP DP  RH WIND       PRES   REMARKS
ANDERSON       CLOUDY    52  52 100 SW12G17   29.69S
CP ATTERBURY + CLOUDY    55  50  82 SW10G17   29.70F
FISHERS *+     CLOUDY    50  50 100 SW8       29.69F
FRANKFORT +    CLOUDY    51  49  93 W13       29.70S
GREENWOOD *+   CLOUDY    54  54 100 SW7       29.70F
INDIANAPOLIS   CLOUDY    53  51  93 SW12      29.68F
-EAGLE CREEK   CLOUDY    52  50  93 SW7       29.68F FOG
KOKOMO +       CLOUDY    48  47  96 SW14      29.67F
MARION +       CLOUDY    48  48 100 W14       29.68S FOG
MT COMFORT *+  CLOUDY    52  50  93 SW8       29.69S
SHELBYVILLE    LGT RAIN  54  51  90 SW10      29.69F
ZIONSVILLE +   CLOUDY    50  49  94 SW8       29.69S

$$

INZ033-034-041-042-049-050-058-059-201800-
EAST CENTRAL INDIANA

CITY           SKY/WX    TMP DP  RH WIND       PRES   REMARKS
MUNCIE         CLOUDY    54  50  86 SW10      29.66F

$$

INZ060-061-067>069-081>083-085>088-201800-
SOUTHWEST INDIANA

CITY           SKY/WX    TMP DP  RH WIND       PRES   REMARKS
EVANSVILLE     PTSUNNY   58  50  75 SW12      29.74F
HUNTINGBURG *+ PTSUNNY   57  50  77 SW13      29.74F
WASHINGTON +   CLOUDY    54  48  81 SW13G23   29.72S

$$

INZ062-063-066-070>080-084-089>092-201800-
SOUTH CENTRAL AND SOUTHEAST INDIANA

CITY           SKY/WX    TMP DP  RH WIND       PRES   REMARKS
BLOOMINGTON    CLOUDY    54  49  83 SW9       29.71F
MADISON *+     CLOUDY    55  50  82 SW10      29.75F
NORTH VERNON + CLOUDY   N/A N/A N/A SW13G20   29.73S
SEYMOUR +      CLOUDY    57  48  72 SW14G20   29.73S

$$





USA.gov is the U.S. government's official web portal to all federal, state and local government web resources and services.